Weather WX

World > North America > United States > Oregon

Finn Rock, Oregon Regional Weather

Lat: 44.13N, Lon: 122.38W
Wx Zone: ORZ013
Feedback

Finn Rock, OR Regional Weather

Expires:201906192200;;749677
ASUS46 KPQR 192110
RWROR 

OREGON REGIONAL WEATHER ROUNDUP
NATIONAL WEATHER SERVICE PORTLAND OR
200 PM PDT WED JUN 19 2019

NOTE: "FAIR" INDICATES FEW OR NO CLOUDS BELOW 12,000 FEET WITH
NO SIGNIFICANT WEATHER AND/OR OBSTRUCTIONS TO VISIBILITY.


ORZ001>013-192200-
NORTHWEST OREGON

  
CITY           SKY/WX    TMP DP  RH WIND       PRES   REMARKS
ASTORIA        PTSUNNY   61  48  62 NW12      30.26F                  
TILLAMOOK      MOSUNNY   64  46  52 W18       30.29F                  
PORTLAND       PTSUNNY   65  42  43 W7        30.23F                  
VANCOUVER WA   PTSUNNY   67  44  43 MISG      30.22F                  
SCAPPOOSE      CLOUDY    68  44  42 VRB6G17   30.21F                  
HILLSBORO      MOSUNNY   68  41  37 NW12G23   30.22F                  
AURORA         CLOUDY    65  43  44 N5        30.24F                  
MCMINNVILLE    PTSUNNY   68  45  43 E5        30.22F                  
SALEM          PTSUNNY   68  43  40 VRB5      30.22F                  
CORVALLIS      MOSUNNY   69  46  43 CALM      30.22F                  
EUGENE         MOSUNNY   70  45  40 NE8G21    30.23F                  
$$


SKY/WX - Weather  TMP - Temperature  DP - Dew Point  RH - Relative Humidity
WIND - Wind Direction/Speed PRES - Barometric Pressure VSB - Visibility
WCI - Wind Chill Index E13G22 Wind - East Wind 13 mph/Gusts of 22 mph